Volver al catálogo

STARLINK-4509

ActivoComunicacionesVLEO
NORAD 53404·PAYLOAD·🇺🇸 United States

Lanzado Aug 10, 2022 desde Cape Canaveral Space Force Station

Loading…

Próximos Pases (próximas 24 horas)

TLE

ActualizadoSource: CelesTrak SupGP

Época: Sep 15, 2026, 02:28 UTC

1 53404C 22097S   26258.10326389  .00050605  00000+0  16274-2 0  2586
2 53404  53.1572 331.9343 0000981  92.8863 300.0134 15.31674486    18

Sigue STARLINK-4509 en tiempo real con AllMySat

Download on the App Store